Regional Weather Roundup
Issued by NWS

Home | Current Version | Previous Version | Text Only | Print | Product List | Glossary Off
Versions: 1 2 3 4 5 6 7 8 9 10 11 12 13 14 15 16 17 18 19 20 21 22 23 24 25 26 27 28 29 30 31 32 33 34 35 36 37 38 39 40 41 42 43 44 45 46 47 48 49 50

000
ASUS43 KLOT 231604
RWRIL

ILLINOIS REGIONAL WEATHER ROUNDUP
NATIONAL WEATHER SERVICE CHICAGO/ROMEOVILLE IL
1100 AM CDT FRI JUN 23 2017

NOTE: "FAIR" INDICATES FEW OR NO CLOUDS BELOW 12,000 FEET WITH NO
SIGNIFICANT WEATHER AND/OR OBSTRUCTIONS TO VISIBILITY.

* THESE STATIONS ARE NOT UNDER NWS QUALITY CONTROL. THEY ALSO MAY NOT
  REPORT WEATHER SUCH AS PRECIPITATION OR FOG.

ILZ001-002-007-009-015-016-024-231700-
NORTHWEST ILLINOIS

CITY           SKY/WX    TMP DP  RH WIND       PRES   REMARKS
MOLINE         CLOUDY    77  60  55 NW9       29.76S
STERLING*      CLOUDY    75  63  66 N9        29.75S
SAVANNA*       CLOUDY    74  62  66 W8        29.76S
$$

ILZ003-004-008-010-011-017-018-231700-
NORTH CENTRAL ILLINOIS

CITY           SKY/WX    TMP DP  RH WIND       PRES   REMARKS
ROCKFORD       CLOUDY    76  59  55 N9        29.74F
FREEPORT*      CLOUDY    73  60  61 NW7       29.76F
ROCHELLE*      PTSUNNY   73  61  66 N12       29.74S
DE KALB*       CLOUDY    71  60  68 NW9       29.73F
PERU*          CLOUDY    71  60  66 N10       29.74R
$$

ILZ005-006-012>014-019>023-231700-
NORTHEAST ILLINOIS

CITY           SKY/WX    TMP DP  RH WIND       PRES   REMARKS
CHICAGO-OHARE  CLOUDY    73  59  61 NW12      29.69F
CHICAGO-MIDWAY PTSUNNY   74  60  61 NW13      29.69S
AURORA         CLOUDY    73  62  68 N12G17    29.72F
LANSING*       CLOUDY    70  60  70 N12G18    29.70R
JOLIET*        MOSUNNY   74  65  72 N8G16     29.71R
WAUKEGAN       CLOUDY    72  63  73 NW8       29.70R
DUPAGE AIRPORT PTSUNNY   72  62  71 NW12      29.71S
WHEELING       CLOUDY    72  62  71 NW10      29.71S
MORRIS*        CLOUDY    72  62  70 N6        29.70R
ROMEOVILLE*    CLOUDY    72  61  67 N10       29.71R
NORTHERLY ISL    N/A     68  61  78 NE1         N/A
$$

LMZ740>746-231700-
SOUTHERN LAKE MICHIGAN

STATION/POSITION SKY/WX   TEMP    WIND        PRES    VSBY  WAVE
                          AIR SEA DIR/SP/G                  HT/PER
                          (F)     (DEG/KT/KT) (MB)    (MI)  (FT/S)
SOUTHERN BUOY              62 61  280/  8/  8 1005.1          1/ 4
WILMETTE HARBOR            66 65  300/  4/  6   N/A           1/ 3
HARRISON CRIB              67     350/  8/  9   N/A
BURNHAM HARBOR             67                   N/A
CALUMET HARBOR             67     340/  7/ 11 1005.2F
BURNS HARBOR               66     360/  7/  9 1005.8F
MICHIGAN CITY              66     330/ 12/ 12   N/A
MICHIGAN CITY 6N           65 68  330/ 10/ 12   N/A           1/ 3
ST. JOSEPH                 65 68  350/ 10/ 12 1005.0S         2/ 3
$$

ILZ025>027-034>036-040-047-049-050-058-095>099-231700-
WEST-CENTRAL ILLINOIS

CITY           SKY/WX    TMP DP  RH WIND       PRES   REMARKS
QUINCY         MOSUNNY   77  63  61 N14       29.78R
GALESBURG*     MOSUNNY   75  60  59 N14       29.78R
MACOMB*        MOSUNNY   76  62  61 N12       29.80R
JACKSONVILLE*  CLOUDY    78  68  71 N20       29.75R HX  80
PITTSFIELD*    PTSUNNY   77  68  72 N16G23    29.77R
$$

ILZ028>032-037-038-041>044-048-051>054-059>061-231700-
CENTRAL ILLINOIS

CITY           SKY/WX    TMP DP  RH WIND       PRES   REMARKS
PONTIAC        CLOUDY    73  71  91 N8        29.73R
BLOOMINGTON    PTSUNNY   74  67  78 N22       29.72R
DECATUR        CLOUDY    77  72  84 NW10      29.70R
PEORIA         PTSUNNY   74  66  76 N8        29.74R
LACON*         CLOUDY    74  64  73 N8        29.74R
LINCOLN*       MOSUNNY   77  70  79 N12G17    29.72R
SPRINGFIELD    PTSUNNY   80  72  76 N10       29.72R HX  84
TAYLORVILLE    CLOUDY    78  73  83 N14       29.71R HX  81
$$

ILZ033-039-045-046-055>057-062-063-231700-
EAST-CENTRAL ILLINOIS

CITY           SKY/WX    TMP DP  RH WIND       PRES   REMARKS
CHAMPAIGN      CLOUDY    74  68  81 N6        29.69S
RANTOUL*       CLOUDY    74  71  92 NW12G18   29.69S
MATTOON        CLOUDY    74  73  97 S10       29.66R
PARIS*         CLOUDY    70  70 100 S3        29.69F THUNDER
$$

ILZ079-100>102-231700-
SOUTHWEST ILLINOIS

CITY           SKY/WX    TMP DP  RH WIND       PRES   REMARKS
ALTON          CLOUDY    79  72  78 W7        29.72R HX  82
BELLEVILLE     CLOUDY    79  74  86 S7        29.71R HX  83
CAHOKIA*       CLOUDY    82  71  69 NW12      29.71R HX  86
SPARTA*        CLOUDY    75  73  92 SE10      29.68
$$

ILZ064>066-069>071-074>076-080>082-084>086-088>090-092>094-231700-
SOUTH-CENTRAL ILLINOIS

CITY           SKY/WX    TMP DP  RH WIND       PRES   REMARKS
CARBONDALE     LGT RAIN  75  75 100 S5        29.70F
CAIRO*         RAIN      74  73  98 E3        29.70F
EFFINGHAM*     CLOUDY    77  76  96 SE7       29.68F
MARION         LGT RAIN  77  75  94 S5        29.74S
MT. VERNON     LGT RAIN  74  73  97 SW7       29.70F
CENTRALIA*     CLOUDY    76  72  88 S8        29.67F
SALEM*         CLOUDY    78  72  83 S12       29.67F HX  80
METROPOLIS*    HVY RAIN  74  73  97 S3        29.72F
$$

ILZ067-068-072-073-078-083-087-091-231700-
SOUTHEAST ILLINOIS

CITY           SKY/WX    TMP DP  RH WIND       PRES   REMARKS
LAWRENCEVILLE  RAIN      73  32  22 SW14      29.70F
FLORA*         CLOUDY   N/A N/A N/A S7        29.70F
FAIRFIELD*     LGT RAIN  73  73 100 S3        29.70F
HARRISBURG*    HVY RAIN  74  73  98 W9        29.74R
ROBINSON*      DRIZZLE   73  72  97 SW10      29.71F
CARMI*         RAIN      75  74  98 SW8       29.73R
$$

ABBREVIATIONS USED IN REMARKS
   TC - TEMPERATURE IN CELSIUS
  WCI - WIND CHILL INDEX
   HX - HEAT INDEX
  VSB - VISIBILITY
$$





USA.gov is the U.S. government's official web portal to all federal, state and local government web resources and services.